Location: Buire
(49.9652°N, 2.5915°E)
Time: 07:11:12
(UTC+00:00)

Daily predictions for brighter satellites

Satellite Brightness Start Highest point End
(mag) Time Altitude Azimuth Time Altitude Azimuth Time Altitude Azimuth
Cosmos 1680 Rocket 4.2 18:18:01 10° NNW 18:23:10 60° WSW 18:28:19 10° S
Cosmos 1937 Rocket 3.7 18:18:10 10° S 18:23:11 48° ESE 18:28:11 10° NNE
Abrixas rocket 2.2 18:26:04 10° WSW 18:28:51 49° SSE 18:31:37 10° E
Okean 2 Rocket 4.1 18:26:49 10° SE 18:30:29 25° E 18:34:10 10° NNE
NOSS 2-2 (E) 3.9 18:28:48 10° S 18:31:55 30° ESE 18:35:23 10° ENE
SL-08 RB Rocket 4.4 18:29:10 10° SE 18:33:19 35° ENE 18:37:28 10° N
USA 116 3.5 18:31:14 10° NNE 18:34:35 56° ESE 18:38:18 10° S
Okean 2 3.6 18:30:55 10° NNW 18:35:07 77° W 18:39:16 10° S
Cosmos 1544 3.6 18:31:59 10° SSW 18:35:37 66° WNW 18:39:16 10° N
Okean-O 3.6 18:32:29 10° S 18:36:49 52° W 18:41:10 10° NNW
Cosmos 1300 Rocket 4.4 18:35:16 10° SSE 18:39:03 29° E 18:42:52 10° NNE
NOSS 2-2 (D) 3.9 18:37:31 10° S 18:40:37 29° ESE 18:43:58 10° ENE
CENTAUR R/B 3.5 18:36:40 10° NW 18:44:08 50° NNE 18:51:59 12° ESE
USA 102 4.3 18:40:57 10° SE 18:44:41 17° ESE 18:45:15 16° ESE
Iridium 4 Rocket 3.7 18:40:10 10° S 18:45:09 78° W 18:50:39 10° N
GP-B 4.2 18:41:15 10° N 18:45:33 49° W 18:49:50 10° SSW
Cosmos 2082 Rocket 4.3 18:43:50 10° N 18:46:01 12° NNE 18:48:13 10° NE
YAOGAN 1 3.3 18:41:54 10° S 18:46:09 56° W 18:50:26 10° NNW
Cosmos 1975 3.1 18:42:37 10° SSW 18:46:42 77° W 18:50:48 10° N
Cosmos 1437 3.4 18:46:48 10° NNW 18:49:45 52° W 18:52:40 10° S
DMSP B5D1-3 4.5 18:44:55 10° NNE 18:50:02 77° ESE 18:55:08 10° S
Cosmos 1674 4.1 18:47:05 10° NNE 18:50:06 21° ENE 18:52:09 14° ESE
H-2A R/B 2.0 18:45:19 10° SSE 18:50:17 87° ENE 18:55:25 10° NNW
ATLAS 3B R/B 3.9 18:45:01 10° NW 18:50:52 30° NNE 18:56:53 10° ENE
SJ-11-01 4.4 18:46:09 10° SSE 18:50:53 86° WSW 18:55:37 10° NNW
CZ-4 R/B 2.9 18:47:35 10° S 18:51:35 41° W 18:55:35 10° NNW
Cosmos 1048 Rocket 4.5 18:48:11 10° NNW 18:53:16 45° ENE 18:58:02 12° SE
ISS -2.6 18:51:34 10° SSW 18:54:25 26° SE 18:56:08 17° E
Cosmos 1536 Rocket 4.1 18:50:34 10° N 18:54:43 38° ENE 18:58:53 10° SE
Cosmos 1842 4.4 18:51:42 10° NNW 18:55:27 47° W 18:59:10 10° SSW
USA 238 DEB 4.0 18:48:43 10° NW 18:55:51 65° NE 19:02:30 13° ESE
USA 238 4.0 18:48:50 10° NW 18:55:57 65° NE 19:02:35 13° ESE
In-Cosmos 22 4.2 18:52:04 10° N 18:57:18 57° ENE 19:02:34 10° SSE
Cosmos 1891 Rocket 4.5 18:53:31 10° S 18:59:31 59° E 19:05:27 10° NNE
ARGOS 3.1 18:58:28 10° SSE 19:03:50 87° ENE 19:09:15 10° NNW
Cosmos 1025 Rocket 3.1 19:00:27 10° N 19:04:47 60° ENE 19:09:08 10° SSE
CZ-2C R/B 3.1 19:00:01 10° NNE 19:05:13 39° E 19:10:26 10° SSE
Cosmos 1782 Rocket 4.1 19:02:33 10° SSW 19:06:56 63° WNW 19:11:22 10° N
Cosmos 1707 2.7 19:04:13 10° N 19:08:05 90° WSW 19:11:55 10° S
Cosmos 2151 Rocket 3.9 19:07:33 10° SSE 19:11:47 44° E 19:16:04 10° NNE
USA 186 1.6 19:13:02 13° SSE 19:15:48 78° ENE 19:19:04 10° N
CREW DRAGON DEMO-1 DEB 3.0 19:13:38 10° WNW 19:16:39 63° N 19:18:00 29° E
Ariane Rocket 2.9 19:13:43 10° SSE 19:18:46 76° ENE 19:23:52 10° NNW
SJ-6B 2.7 19:16:15 16° SSE 19:19:05 62° ENE 19:22:49 10° N
CZ-2C R/B 4.3 19:14:58 10° S 19:19:59 45° W 19:25:19 10° NNW
Cosmos 1844 4.3 19:15:53 10° SSE 19:20:52 32° ESE 19:25:48 10° NE
FREGAT/IRIS 2.2 19:20:39 40° SE 19:21:19 58° ENE 19:23:54 10° N
Nadezhda 4 Rocket 3.9 19:16:10 10° N 19:22:18 70° ENE 19:28:24 10° SSE
Cosmos 2263 Rocket 2.9 19:17:14 10° SW 19:22:42 57° NW 19:28:15 10° NNE
Cosmos 494 Rocket 4.3 19:17:53 10° NNW 19:23:02 51° ENE 19:26:06 23° SE
Cosmos 1072 Rocket 4.5 19:16:56 10° S 19:23:11 87° E 19:29:35 10° N
NOSS 3-2 (A) 4.0 19:16:10 10° NW 19:23:34 88° NE 19:30:19 17° SE
NOSS 2-2 (C) 3.0 19:21:30 10° SW 19:25:01 77° SE 19:29:02 10° NE
MOS 1 4.2 19:21:47 10° SSE 19:27:29 79° ENE 19:33:13 10° NNW
Lacrosse 4 Rocket 3.7 19:27:13 10° N 19:28:45 12° NNE 19:30:18 10° NE
Cosmos 1844 Rocket 2.9 19:24:14 10° S 19:29:28 44° ESE 19:34:45 10° NE
Cosmos 2034 Rocket 4.0 19:23:20 10° S 19:29:38 67° E 19:35:56 10° NNE
USA 102 4.1 19:24:09 10° SSE 19:29:53 30° SSW 19:29:58 30° SSW
Cosmos 2298 Rocket 4.0 19:26:39 10° S 19:31:53 62° ESE 19:37:10 10° NNE
ATLAS CENTAUR R/B 4.0 19:33:36 10° NW 19:34:59 12° NNW 19:36:22 10° N
SPOT 3 Rocket 3.7 19:32:57 25° SE 19:35:45 52° ENE 19:40:46 10° N
USA 234 3.6 19:37:13 10° ENE 19:43:12 39° SE 19:49:15 10° SSW
Resurs 01 Rocket 2.0 19:42:54 36° ESE 19:44:00 43° ENE 19:48:15 10° N
SWAS 4.4 19:40:06 10° NNW 19:44:26 74° ENE 19:45:52 40° SE
Lacrosse 5 rocket 2.9 19:42:25 10° WNW 19:46:24 34° N 19:49:28 16° NE
MetOp-A 4.2 19:42:59 13° SSE 19:47:47 81° WSW 19:53:11 10° NNW
Cosmos 1833 Rocket 3.7 19:44:42 10° NNW 19:49:43 31° NE 19:51:25 26° ENE
Cosmos 372 Rocket 4.3 19:45:54 10° SSW 19:51:07 69° WNW 19:56:22 10° NNE
MOS 1 Rocket 4.4 19:48:04 10° N 19:52:19 42° WNW 19:56:24 10° SW
OBJECT-B 0.7 19:52:33 70° SSE 19:52:53 90° ESE 19:56:09 10° NNW
Meteor 1-15 Rocket 4.1 19:48:26 10° S 19:54:02 74° E 19:59:46 10° NNE
Cosmos 1626 2.7 19:52:57 10° N 19:56:03 41° NE 19:56:03 41° NE
NOSS 3-2 (C) 4.0 19:50:58 10° NW 19:58:23 89° SW 20:03:03 30° SE
DMSP B5D2-2 4.0 19:53:40 10° NNE 19:59:00 88° ESE 20:04:18 10° SSW
ARIANE 5 R/B 3.2 20:01:02 38° ENE 20:01:02 38° ENE 20:05:03 10° N
Cosmos 2150 Rocket 4.1 19:56:12 10° SSW 20:01:35 86° WNW 20:07:05 10° NNE
Cosmos 1634 Rocket 4.0 19:59:02 27° SSE 20:02:16 55° E 20:08:17 10° NNE
Abrixas rocket 3.3 20:01:10 10° W 20:03:00 34° WSW 20:03:00 34° WSW
BREEZE-M TANK 3.2 19:57:02 10° WSW 20:04:14 44° S 20:04:37 43° SSE
Okean 2 Rocket 4.5 20:04:09 10° SW 20:08:23 39° WNW 20:12:37 10° N
Landsat 7 4.3 20:09:07 41° ENE 20:09:13 41° ENE 20:13:42 10° N
Cosmos 2285 Rocket 3.9 20:03:10 10° S 20:09:25 68° ESE 20:15:43 10° NNE
Cosmos 1125 Rocket 3.4 20:04:07 10° SSW 20:09:25 78° ESE 20:14:45 10° NNE
Okean 1 Rocket 2.9 20:08:19 40° S 20:09:53 81° E 20:14:24 10° NNE
Cosmos 1627 Rocket 4.5 20:10:03 10° N 20:16:30 87° E 20:19:38 33° S
ERS-1 Rocket 4.1 20:17:26 29° NE 20:17:26 29° NE 20:21:28 10° N
Resurs 1-3 4.0 20:18:56 38° SSW 20:20:24 59° W 20:24:46 10° NNW
Cosmos 1092 Rocket 4.1 20:15:40 10° NNW 20:21:49 72° W 20:25:37 25° S
Meteor 2-5 Rocket 3.8 20:17:24 10° NNW 20:23:02 77° W 20:25:27 36° S
Cosmos 1805 3.5 20:24:12 61° WSW 20:24:34 66° W 20:28:30 10° N
Cosmos 1674 4.1 20:22:11 10° NNW 20:25:45 36° W 20:27:00 28° SW
ATLAS 2AS CENTAUR R/B 3.1 20:20:07 10° S 20:27:37 48° ESE 20:35:06 10° NE
Cosmos 2026 Rocket 4.0 20:21:40 10° N 20:28:03 83° W 20:30:53 36° S
Cosmos 2098 Rocket 4.4 20:22:17 10° N 20:29:14 48° ENE 20:30:00 46° E
ISS -1.8 20:27:35 10° WSW 20:29:08 25° WSW 20:29:08 25° WSW
Cosmos 2082 Rocket 3.0 20:26:42 10° NNW 20:31:54 36° NE 20:32:16 36° ENE
BREEZE-M DEB (TANK) 4.4 20:29:38 10° WSW 20:33:56 81° SSE 20:52:53 10° ENE
Cosmos 1733 4.1 20:36:19 44° N 20:36:19 44° N 20:39:06 10° N
CENTAUR R/B 3.4 20:27:25 10° NW 20:35:22 67° SW 20:39:10 37° SSE
Meteor 1-22 Rocket 4.2 20:34:25 47° S 20:36:15 82° E 20:42:20 10° NNE
Cosmos 1892 Rocket 3.8 20:34:00 10° N 20:37:39 62° N 20:37:39 62° N
CZ-2C R/B 3.7 20:34:09 10° NNE 20:38:37 74° WNW 20:38:59 69° WSW
ATLAS 3B R/B 2.8 20:35:55 10° NW 20:42:44 68° NE 20:44:10 55° E
COSMOS 2406 3.0 20:37:03 10° NNW 20:42:46 81° ENE 20:43:10 76° ESE
SPOT 1/Viking Rocket 3.6 20:43:21 66° NE 20:43:21 66° NE 20:48:16 10° N
SL-14 R/B 4.1 20:40:08 10° NNW 20:43:14 49° NW 20:43:14 49° NW
Cosmos 2279 Rocket 3.9 20:44:35 66° SE 20:45:12 71° E 20:51:28 10° NNE
CZ-2C R/B 4.1 20:40:25 10° N 20:45:29 39° WNW 20:50:37 10° SW
Meteor 1-24 Rocket 3.9 20:40:21 10° NNW 20:45:47 66° W 20:47:08 49° SSW
Cosmos 1269 Rocket 4.2 20:42:09 10° NNW 20:47:25 64° WSW 20:48:00 59° SW
Cosmos 2142 Rocket 4.4 20:47:06 56° S 20:48:33 85° E 20:54:49 10° N
Spot 2 Rocket 3.4 20:51:06 79° N 20:51:06 79° N 20:55:53 10° NNW
Exosat Rocket 4.1 20:50:21 10° SW 20:55:39 55° WNW 21:00:36 10° NNE
Terra 3.1 21:02:35 31° NNE 21:02:35 31° NNE 21:05:31 10° N
MetOp-B 4.4 21:01:41 57° SW 21:02:09 59° WSW 21:07:28 10° NNW
Cosmos 2278 Rocket 4.0 21:07:57 19° NE 21:07:57 19° NE 21:09:31 10° NE
Cosmos 1844 4.4 20:59:15 10° SW 21:04:47 51° NW 21:10:18 10° NNE
Lacrosse 4 Rocket 3.2 21:04:30 10° NNW 21:06:37 27° N 21:06:37 27° N
Cosmos 909 Rocket 4.0 21:02:42 10° NW 21:09:21 68° NE 21:09:31 67° ENE
Cosmos 1844 Rocket 4.0 21:08:16 10° WSW 21:13:27 38° NW 21:18:41 10° NNE
Resurs 01 Rocket 3.5 21:20:28 24° W 21:20:40 24° W 21:24:20 10° NW
Cosmos 2251 Rocket 4.1 21:15:39 10° NNW 21:19:53 55° N 21:19:53 55° N
Lacrosse 5 rocket 3.2 21:22:11 10° NW 21:25:05 32° NNW 21:25:05 32° NNW
USA 234 3.2 21:24:43 50° NE 21:26:38 84° NNW 21:33:11 10° WSW
SPOT 5 3.7 21:28:43 52° NNW 21:28:43 52° NNW 21:32:42 10° NNW
Cosmos 2266 Rocket 4.0 21:24:13 10° N 21:29:34 70° NNW 21:29:34 70° NNW
Cosmos 1833 Rocket 3.3 21:28:27 10° NW 21:33:07 52° WNW 21:33:07 52° WNW
Cosmos 1655 Rocket 4.4 21:35:37 10° NNW 21:41:39 58° W 21:41:39 58° W
NOSS 3-4 (A) 4.3 21:57:18 43° NNE 21:57:18 43° NNE 22:01:47 10° NE
NOSS 3-4 (C) 4.3 21:57:30 42° NNE 21:57:30 42° NNE 22:01:53 10° NE
ERS-1 Rocket 4.4 21:57:27 34° NW 21:57:27 34° NW 22:00:39 10° NNW
Cosmos 2082 Rocket 3.6 22:10:46 10° NW 22:14:06 33° WNW 22:14:06 33° WNW
ATLAS 2AS CENTAUR R/B 3.4 22:10:43 10° WSW 22:18:36 61° NW 22:26:20 10° NE
ATLAS 3B R/B 4.0 22:27:00 10° NW 22:31:25 31° W 22:31:25 31° W
Terra 4.3 22:41:29 18° NW 22:41:29 18° NW 22:43:02 10° NW
Cosmos 2278 Rocket 3.8 22:49:46 30° NNW 22:49:46 30° NNW 22:53:31 10° NNE
CZ-4C R/B 4.0 23:34:17 28° NNE 23:34:17 28° NNE 23:37:28 10° NE
